Location: Dresden
(51.0483°N, 13.7137°E)
Time: 22:24:18
(UTC+02:00)

ISS - Visible Passes

Search period start: 25 September 2020 00:00
Search period end: 05 October 2020 00:00
Orbit: 419 x 420 km, 51.6° (Epoch: 26 September)

Date Brightness Start Highest point End Pass type
(mag) Time Alt. Az. Time Alt. Az. Time Alt. Az.
25 Sep -3.7 19:21:53 10° WSW 19:25:15 73° SSE 19:28:38 10° ENE visible
25 Sep -3.8 20:58:43 10° W 21:02:07 79° N 21:02:08 79° N visible
26 Sep -3.7 20:11:19 10° W 20:14:42 79° N 20:16:31 25° E visible
26 Sep -1.3 21:48:10 10° WNW 21:49:28 21° W 21:49:28 21° W visible
27 Sep -3.7 19:23:54 10° W 19:27:17 83° N 19:30:40 10° E visible
27 Sep -3.6 21:00:46 10° W 21:03:50 70° W 21:03:50 70° W visible
28 Sep -3.8 20:13:21 10° W 20:16:45 85° N 20:18:11 32° E visible
28 Sep -0.9 21:50:15 10° W 21:51:09 16° W 21:51:09 16° W visible
29 Sep -3.7 19:25:55 10° W 19:29:18 79° N 19:32:33 11° E visible
29 Sep -2.9 21:02:47 10° W 21:05:30 45° WSW 21:05:30 45° WSW visible
30 Sep -3.7 20:15:20 10° WNW 20:18:42 69° SSW 20:19:53 36° SE visible
30 Sep -0.6 21:52:33 10° W 21:52:51 11° W 21:52:51 11° W visible
01 Oct -3.7 19:27:53 10° W 19:31:16 84° SSW 19:34:17 13° ESE visible
01 Oct -2.0 21:04:53 10° W 21:07:15 26° SW 21:07:15 26° SW visible
02 Oct -2.7 20:17:18 10° W 20:20:30 39° SSW 20:21:42 28° SSE visible
03 Oct -3.2 19:29:48 10° W 19:33:07 53° SSW 19:36:12 11° SE visible
03 Oct -1.1 21:07:32 10° WSW 21:09:10 14° SW 21:09:10 14° SW visible
04 Oct -1.5 20:19:33 10° W 20:22:05 20° SW 20:23:45 14° S visible
